Regional Weather Roundup
Issued by NWS

Home | Current Version | Previous Version | Graphics & Text | Print | Product List | Glossary On
Versions: 1 2 3 4 5 6 7 8 9 10 11 12 13 14 15 16 17 18 19 20 21 22 23 24 25 26 27 28 29 30 31 32 33 34 35 36 37 38 39 40 41 42 43 44 45 46 47 48 49 50
000
ASUS43 KOAX 100402
RWRNE

WEATHER ROUNDUP FOR NEBRASKA
NATIONAL WEATHER SERVICE OMAHA NE
1000 PM CST SAT DEC 09 2017

NOTES: SATELLITE DATA IS BEING USED TO AUGMENT CLOUD COVER ABOVE
       12000 FEET.
       "FAIR" INDICATES FEW OR NO CLOUDS BELOW 12,000 FEET WITH NO
       SIGNIFICANT WEATHER AND/OR OBSTRUCTIONS TO VISIBILITY.


NEZ001>004-019>022-054>056-100500-
NEBRASKA PANHANDLE

CITY           SKY/WX    TMP DP  RH WIND       PRES   REMARKS
SCOTTSBLUFF    CLEAR     30  12  47 NW6       30.33R WCI  24
ALLIANCE       CLEAR     25  11  55 W12       30.26R WCI  14
CHADRON        CLEAR     37  17  44 W15       30.26R WCI  28
GORDON         FAIR      41  18  40 W16       30.20R
KIMBALL        CLOUDY    38   8  28 NW17      30.34R WCI  29
SIDNEY         CLOUDY    36  11  35 W15       30.31S WCI  27
$$

NEZ057>060-069>072-079>082-100500-
SOUTHWEST NEBRASKA

CITY           SKY/WX    TMP DP  RH WIND       PRES   REMARKS
NORTH PLATTE   CLEAR     29  16  58 NW9       30.20R WCI  20
IMPERIAL       CLEAR     38  11  32 W12       30.25S WCI  30
LEXINGTON      CLOUDY    28  14  55 NW7       30.17S WCI  21
MCCOOK         CLEAR     39  12  33 W12       30.21R WCI  32
OGALLALA       CLEAR     32  12  43 SW9       30.24S WCI  24
$$

NEZ005>010-023>029-035>040-094-100500-
NORTH CENTRAL NEBRASKA

CITY           SKY/WX    TMP DP  RH WIND       PRES   REMARKS
VALENTINE      CLOUDY    34  20  56 W8        30.11S WCI  27
AINSWORTH      CLEAR     37  22  54 W10       30.09S WCI  30
BROKEN BOW     CLEAR     44  14  29 NW18      30.12S
O`NEILL        CLOUDY    38  24  57 W12       30.04S WCI  30
ORD            CLOUDY    29  18  63 NW5       30.08F WCI  24
THEDFORD       CLEAR     39  18  42 W12       30.15S WCI  32
$$

NEZ041-046>049-061>064-073>077-083>087-100500-
SOUTH CENTRAL NEBRASKA

CITY           SKY/WX    TMP DP  RH WIND       PRES   REMARKS
GRAND ISLAND   CLOUDY    36  19  50 W15       30.10F WCI  27
AURORA         CLOUDY    29  18  63 SW10      30.09F WCI  20
HASTINGS       CLOUDY    31  16  54 W10       30.12F WCI  22
HEBRON         CLOUDY    35  23  62 W6        30.13F WCI  30
HOLDREGE       CLEAR     40  17  38 W12       30.15S WCI  33
KEARNEY        CLEAR     45  14  28 W16       30.13F
YORK           CLOUDY    30  21  69 SW12      30.08F WCI  21
$$

NEZ011>018-030>034-042>045-100500-
NORTHEAST NEBRASKA

CITY           SKY/WX    TMP DP  RH WIND       PRES   REMARKS
NORFOLK        CLOUDY    34  22  61 W9        30.01F WCI  27
ALBION         CLOUDY    37  20  50 W6        30.05F WCI  33
BLAIR          CLOUDY    29  22  74 SW8       30.04F WCI  21
COLUMBUS       CLOUDY    30  22  72 SW7       30.06F WCI  23
FREMONT        CLOUDY    32  21  64 SW8       30.05F WCI  25
TEKAMAH        CLOUDY    19  12  74 SE8       30.05F WCI   9
WAYNE          CLOUDY    32  22  65 SW13      29.99F WCI  22
$$

NEZ050>053-065>068-078-088>093-100500-
SOUTHEAST NEBRASKA

CITY           SKY/WX    TMP DP  RH WIND       PRES   REMARKS
LINCOLN        CLOUDY    26  19  74 S5        30.11F WCI  20
OMAHA EPPLEY   CLOUDY    25  18  74 SE9       30.07F WCI  15
BEATRICE       CLOUDY    29  20  69 SW7       30.12F WCI  22
FALLS CITY     CLOUDY    25  17  72 S8        30.13F WCI  16
NEBRASKA CITY  CLOUDY    28  21  76 SW13      30.10F WCI  17
PLATTSMOUTH    CLOUDY    29  21  71 S10       30.09F WCI  20
$$

NEZ044-045-051>053-067-100500-
OMAHA AREA

CITY           SKY/WX    TMP DP  RH WIND       PRES   REMARKS
OMAHA EPPLEY   CLOUDY    25  18  74 SE9       30.07F WCI  15
BLAIR          CLOUDY    29  22  74 SW8       30.04F WCI  21
FREMONT        CLOUDY    32  21  64 SW8       30.05F WCI  25
MILLARD        CLOUDY    27  21  77 CALM      30.08F
OFFUTT AFB     CLOUDY    25  18  74 S7        30.07F WCI  17
PLATTSMOUTH    CLOUDY    29  21  71 S10       30.09F WCI  20
WAHOO          FAIR      26  19  73 SW7       30.07F WCI  18
$$




USA.gov is the U.S. government's official web portal to all federal, state and local government web resources and services.